Time,TemperatureF,DewpointF,PressureIn,WindDirection,WindDirectionDegrees,WindSpeedMPH,WindSpeedGustMPH,Humidity,HourlyPrecipIn,Conditions,Clouds,dailyrainin,SoftwareType,DateUTC
2013-02-09 00:00:00,34.6,24.0,29.68,SSW,202,0.0,7.9,64,0.00,,,0.00,Rainwise IP-100,2013-02-09 05:00:00,
2013-02-09 00:01:00,34.6,24.0,29.68,SE,135,3.0,7.9,64,0.00,,,0.00,Rainwise IP-100,2013-02-09 05:01:00,
2013-02-09 00:02:00,34.6,24.0,29.67,SSW,202,0.0,7.2,64,0.00,,,0.00,Rainwise IP-100,2013-02-09 05:02:00,
2013-02-09 00:05:00,34.6,24.0,29.67,SSW,202,1.9,7.9,65,0.00,,,0.00,Rainwise IP-100,2013-02-09 05:05:00,
2013-02-09 00:11:00,34.5,24.0,29.68,SSW,202,1.9,8.2,65,0.00,,,0.00,Rainwise IP-100,2013-02-09 05:11:00,
2013-02-09 00:16:00,34.5,24.0,29.67,SSW,202,1.6,7.2,64,0.00,,,0.00,Rainwise IP-100,2013-02-09 05:16:00,
2013-02-09 00:21:00,34.5,24.0,29.68,SSW,202,3.0,10.5,64,0.00,,,0.00,Rainwise IP-100,2013-02-09 05:21:00,
2013-02-09 00:26:00,34.5,24.0,29.68,SSW,202,2.6,8.9,64,0.00,,,0.00,Rainwise IP-100,2013-02-09 05:26:00,
2013-02-09 00:31:00,34.5,24.0,29.67,SSW,202,3.0,8.6,64,0.00,,,0.00,Rainwise IP-100,2013-02-09 05:31:00,
2013-02-09 00:36:00,34.5,24.0,29.68,SSW,202,4.0,4.7,64,0.00,,,0.00,Rainwise IP-100,2013-02-09 05:36:00,
2013-02-09 00:41:00,34.4,24.0,29.68,SSW,202,5.8,8.4,64,0.00,,,0.00,Rainwise IP-100,2013-02-09 05:41:00,
2013-02-09 00:46:00,34.4,24.0,29.68,SW,225,1.9,8.2,64,0.00,,,0.00,Rainwise IP-100,2013-02-09 05:46:00,
2013-02-09 00:51:00,34.4,24.0,29.69,NNW,337,4.7,9.6,64,0.00,,,0.00,Rainwise IP-100,2013-02-09 05:51:00,
2013-02-09 00:56:00,34.3,24.0,29.68,SW,225,2.8,7.2,64,0.00,,,0.00,Rainwise IP-100,2013-02-09 05:56:00,
2013-02-09 01:01:00,34.3,24.0,29.69,SSW,202,8.4,11.0,64,0.00,,,0.00,Rainwise IP-100,2013-02-09 06:01:00,
2013-02-09 01:06:00,34.3,24.0,29.69,SW,225,3.0,9.1,64,0.00,,,0.00,Rainwise IP-100,2013-02-09 06:06:00,
2013-02-09 01:12:00,34.2,24.0,29.69,SSW,202,2.1,9.8,64,0.00,,,0.00,Rainwise IP-100,2013-02-09 06:12:00,
2013-02-09 01:17:00,34.2,24.0,29.69,SSW,202,2.3,7.0,64,0.00,,,0.00,Rainwise IP-100,2013-02-09 06:17:00,
2013-02-09 01:22:00,34.1,24.0,29.69,SSW,202,10.7,10.7,64,0.00,,,0.00,Rainwise IP-100,2013-02-09 06:22:00,
2013-02-09 01:27:00,34.1,24.0,29.69,SSW,202,7.5,10.7,64,0.00,,,0.00,Rainwise IP-100,2013-02-09 06:27:00,
2013-02-09 01:32:00,34.0,24.0,29.69,SW,225,4.2,10.7,64,0.00,,,0.00,Rainwise IP-100,2013-02-09 06:32:00,
2013-02-09 01:37:00,34.0,24.0,29.70,SSW,202,2.3,10.0,64,0.00,,,0.00,Rainwise IP-100,2013-02-09 06:37:00,
2013-02-09 01:42:00,33.9,24.0,29.71,SSW,202,1.9,7.9,64,0.00,,,0.00,Rainwise IP-100,2013-02-09 06:42:00,
2013-02-09 01:47:00,33.8,24.0,29.70,WSW,247,2.8,10.0,64,0.00,,,0.00,Rainwise IP-100,2013-02-09 06:47:00,
2013-02-09 01:53:00,33.8,24.0,29.71,WNW,292,1.2,7.7,64,0.00,,,0.00,Rainwise IP-100,2013-02-09 06:53:00,
2013-02-09 01:58:00,33.7,24.0,29.72,SW,225,3.7,5.1,64,0.00,,,0.00,Rainwise IP-100,2013-02-09 06:58:00,
2013-02-09 02:03:00,33.7,24.0,29.72,SSW,202,5.1,10.3,65,0.00,,,0.00,Rainwise IP-100,2013-02-09 07:03:00,
2013-02-09 02:08:00,33.6,24.0,29.73,NNE,22,0.0,8.9,65,0.00,,,0.00,Rainwise IP-100,2013-02-09 07:08:00,
2013-02-09 02:13:00,33.5,24.0,29.73,SW,225,1.9,9.3,65,0.00,,,0.00,Rainwise IP-100,2013-02-09 07:13:00,
2013-02-09 02:18:00,33.4,23.0,29.73,SW,225,3.0,8.4,65,0.00,,,0.00,Rainwise IP-100,2013-02-09 07:18:00,
2013-02-09 02:23:00,33.4,23.0,29.73,SSW,202,5.1,6.5,65,0.00,,,0.00,Rainwise IP-100,2013-02-09 07:23:00,
2013-02-09 02:28:00,33.3,24.0,29.73,SW,225,1.4,9.6,66,0.00,,,0.00,Rainwise IP-100,2013-02-09 07:28:00,
2013-02-09 02:33:00,33.1,24.0,29.72,SSW,202,3.5,10.5,66,0.00,,,0.00,Rainwise IP-100,2013-02-09 07:33:00,
2013-02-09 02:38:00,33.0,24.0,29.73,SSW,202,0.0,5.8,66,0.00,,,0.00,Rainwise IP-100,2013-02-09 07:38:00,
2013-02-09 02:43:00,33.0,24.0,29.73,SSW,202,2.8,6.5,67,0.00,,,0.00,Rainwise IP-100,2013-02-09 07:43:00,
2013-02-09 02:48:00,32.9,24.0,29.74,SSW,202,4.0,8.2,67,0.00,,,0.00,Rainwise IP-100,2013-02-09 07:48:00,
2013-02-09 02:54:00,32.9,24.0,29.73,South,180,7.2,8.9,67,0.00,,,0.00,Rainwise IP-100,2013-02-09 07:54:00,
2013-02-09 02:59:00,32.8,24.0,29.74,SSW,202,6.8,7.9,67,0.00,,,0.00,Rainwise IP-100,2013-02-09 07:59:00,
2013-02-09 03:04:00,32.8,24.0,29.74,SW,225,3.3,8.2,67,0.00,,,0.00,Rainwise IP-100,2013-02-09 08:04:00,
2013-02-09 03:09:00,32.7,24.0,29.74,SW,225,1.2,8.6,68,0.00,,,0.00,Rainwise IP-100,2013-02-09 08:09:00,
2013-02-09 03:14:00,32.7,24.0,29.75,SSW,202,3.7,10.0,68,0.00,,,0.00,Rainwise IP-100,2013-02-09 08:14:00,
2013-02-09 03:19:00,32.6,24.0,29.75,SW,225,2.3,8.4,69,0.00,,,0.00,Rainwise IP-100,2013-02-09 08:19:00,
2013-02-09 03:24:00,32.5,24.0,29.75,SSW,202,1.6,7.9,68,0.00,,,0.00,Rainwise IP-100,2013-02-09 08:24:00,
2013-02-09 03:29:00,32.5,24.0,29.75,SW,225,4.7,9.3,69,0.00,,,0.00,Rainwise IP-100,2013-02-09 08:29:00,
2013-02-09 03:34:00,32.4,23.0,29.75,South,180,5.1,8.6,69,0.00,,,0.00,Rainwise IP-100,2013-02-09 08:34:00,
2013-02-09 03:39:00,32.3,23.0,29.75,SSW,202,4.7,8.6,69,0.00,,,0.00,Rainwise IP-100,2013-02-09 08:39:00,
2013-02-09 03:44:00,32.2,23.0,29.75,SW,225,2.3,7.9,69,0.00,,,0.00,Rainwise IP-100,2013-02-09 08:44:00,
2013-02-09 03:49:00,32.1,23.0,29.75,South,180,2.6,7.0,69,0.00,,,0.00,Rainwise IP-100,2013-02-09 08:49:00,
2013-02-09 03:55:00,32.0,24.0,29.76,SSW,202,2.3,7.7,70,0.00,,,0.00,Rainwise IP-100,2013-02-09 08:55:00,
2013-02-09 04:00:00,32.0,24.0,29.76,SSW,202,3.0,6.1,70,0.00,,,0.00,Rainwise IP-100,2013-02-09 09:00:00,
2013-02-09 04:05:00,31.9,24.0,29.77,SSW,202,5.8,10.7,70,0.00,,,0.00,Rainwise IP-100,2013-02-09 09:05:00,
2013-02-09 04:10:00,31.8,24.0,29.77,WSW,247,2.6,9.3,70,0.00,,,0.00,Rainwise IP-100,2013-02-09 09:10:00,
2013-02-09 04:15:00,31.8,23.0,29.77,SW,225,1.9,8.2,69,0.00,,,0.00,Rainwise IP-100,2013-02-09 09:15:00,
2013-02-09 04:20:00,31.7,23.0,29.77,SW,225,1.9,6.8,69,0.00,,,0.00,Rainwise IP-100,2013-02-09 09:20:00,
2013-02-09 04:25:00,31.6,23.0,29.77,WSW,247,4.7,9.6,68,0.00,,,0.00,Rainwise IP-100,2013-02-09 09:25:00,
2013-02-09 04:30:00,31.6,23.0,29.77,SW,225,4.7,10.7,67,0.00,,,0.00,Rainwise IP-100,2013-02-09 09:30:00,
2013-02-09 04:35:00,31.5,23.0,29.77,SW,225,3.5,9.3,67,0.00,,,0.00,Rainwise IP-100,2013-02-09 09:35:00,
2013-02-09 04:40:00,31.4,21.0,29.79,West,270,4.4,7.0,66,0.00,,,0.00,Rainwise IP-100,2013-02-09 09:40:00,
2013-02-09 04:45:00,31.3,21.0,29.78,SW,225,4.2,8.4,66,0.00,,,0.00,Rainwise IP-100,2013-02-09 09:45:00,
2013-02-09 04:50:00,31.2,21.0,29.80,WSW,247,2.1,9.1,65,0.00,,,0.00,Rainwise IP-100,2013-02-09 09:50:00,
2013-02-09 04:56:00,31.1,21.0,29.80,WNW,292,0.0,7.0,65,0.00,,,0.00,Rainwise IP-100,2013-02-09 09:56:00,
2013-02-09 05:01:00,31.0,21.0,29.80,SSE,157,2.8,8.9,65,0.00,,,0.00,Rainwise IP-100,2013-02-09 10:01:00,
2013-02-09 05:06:00,31.0,21.0,29.80,SW,225,2.3,7.0,65,0.00,,,0.00,Rainwise IP-100,2013-02-09 10:06:00,
2013-02-09 05:11:00,30.9,21.0,29.80,SSE,157,0.0,8.9,65,0.00,,,0.00,Rainwise IP-100,2013-02-09 10:11:00,
2013-02-09 05:16:00,30.8,21.0,29.80,West,270,1.2,5.4,65,0.00,,,0.00,Rainwise IP-100,2013-02-09 10:16:00,
2013-02-09 05:21:00,30.7,21.0,29.80,SW,225,3.3,8.2,65,0.00,,,0.00,Rainwise IP-100,2013-02-09 10:21:00,
2013-02-09 05:26:00,30.6,21.0,29.81,SSW,202,2.8,10.5,65,0.00,,,0.00,Rainwise IP-100,2013-02-09 10:26:00,
2013-02-09 05:31:00,30.5,21.0,29.81,SW,225,2.3,8.4,65,0.00,,,0.00,Rainwise IP-100,2013-02-09 10:31:00,
2013-02-09 05:36:00,30.5,21.0,29.81,South,180,4.2,7.9,65,0.00,,,0.00,Rainwise IP-100,2013-02-09 10:36:00,
2013-02-09 05:41:00,30.4,21.0,29.82,SW,225,5.4,7.7,65,0.00,,,0.00,Rainwise IP-100,2013-02-09 10:41:00,
2013-02-09 05:46:00,30.3,21.0,29.81,SW,225,5.4,8.9,64,0.00,,,0.00,Rainwise IP-100,2013-02-09 10:46:00,
2013-02-09 05:51:00,30.3,21.0,29.82,SSW,202,2.8,8.9,64,0.00,,,0.00,Rainwise IP-100,2013-02-09 10:51:00,
2013-02-09 05:57:00,30.2,21.0,29.82,SSW,202,3.0,5.4,64,0.00,,,0.00,Rainwise IP-100,2013-02-09 10:57:00,
2013-02-09 06:02:00,30.2,21.0,29.83,SSW,202,2.3,8.9,64,0.00,,,0.00,Rainwise IP-100,2013-02-09 11:02:00,
2013-02-09 06:07:00,30.1,21.0,29.83,SSW,202,2.6,6.1,65,0.00,,,0.00,Rainwise IP-100,2013-02-09 11:07:00,
2013-02-09 06:12:00,30.0,21.0,29.83,SW,225,2.6,7.2,65,0.00,,,0.00,Rainwise IP-100,2013-02-09 11:12:00,
2013-02-09 06:17:00,30.0,21.0,29.83,SSW,202,1.6,8.9,65,0.00,,,0.00,Rainwise IP-100,2013-02-09 11:17:00,
2013-02-09 06:22:00,29.9,21.0,29.83,SSW,202,1.6,5.1,65,0.00,,,0.00,Rainwise IP-100,2013-02-09 11:22:00,
2013-02-09 06:27:00,29.8,21.0,29.83,SSW,202,1.2,8.4,65,0.00,,,0.00,Rainwise IP-100,2013-02-09 11:27:00,
2013-02-09 06:32:00,29.7,21.0,29.84,West,270,1.2,12.8,64,0.00,,,0.00,Rainwise IP-100,2013-02-09 11:32:00,
2013-02-09 06:37:00,29.7,21.0,29.84,South,180,3.3,9.8,64,0.00,,,0.00,Rainwise IP-100,2013-02-09 11:37:00,
2013-02-09 06:42:00,29.6,21.0,29.84,SSW,202,3.5,6.8,64,0.00,,,0.00,Rainwise IP-100,2013-02-09 11:42:00,
2013-02-09 06:47:00,29.5,21.0,29.85,SSW,202,2.6,10.3,64,0.00,,,0.00,Rainwise IP-100,2013-02-09 11:47:00,
2013-02-09 06:52:00,29.4,18.0,29.85,SSW,202,5.1,9.3,64,0.00,,,0.00,Rainwise IP-100,2013-02-09 11:52:00,
2013-02-09 06:58:00,29.3,18.0,29.85,SW,225,2.6,7.9,64,0.00,,,0.00,Rainwise IP-100,2013-02-09 11:58:00,
2013-02-09 07:03:00,29.2,18.0,29.86,SSW,202,2.6,10.5,64,0.00,,,0.00,Rainwise IP-100,2013-02-09 12:03:00,
2013-02-09 07:08:00,29.2,18.0,29.87,SSW,202,1.4,11.4,63,0.00,,,0.00,Rainwise IP-100,2013-02-09 12:08:00,
2013-02-09 07:13:00,29.2,18.0,29.87,SW,225,4.9,10.3,63,0.00,,,0.00,Rainwise IP-100,2013-02-09 12:13:00,
2013-02-09 07:18:00,29.1,18.0,29.88,SW,225,3.0,10.0,63,0.00,,,0.00,Rainwise IP-100,2013-02-09 12:18:00,
2013-02-09 07:23:00,29.0,18.0,29.88,SSW,202,3.7,11.2,64,0.00,,,0.00,Rainwise IP-100,2013-02-09 12:23:00,
2013-02-09 07:28:00,29.0,18.0,29.88,SSW,202,1.9,9.3,63,0.00,,,0.00,Rainwise IP-100,2013-02-09 12:28:00,
2013-02-09 07:33:00,28.9,18.0,29.89,SE,135,5.1,11.9,63,0.00,,,0.00,Rainwise IP-100,2013-02-09 12:33:00,
2013-02-09 07:38:00,28.9,18.0,29.88,SSW,202,0.0,8.9,63,0.00,,,0.00,Rainwise IP-100,2013-02-09 12:38:00,
2013-02-09 07:43:00,28.9,18.0,29.89,West,270,3.5,7.2,63,0.00,,,0.00,Rainwise IP-100,2013-02-09 12:43:00,
2013-02-09 07:48:00,28.8,18.0,29.89,SW,225,3.3,8.2,63,0.00,,,0.00,Rainwise IP-100,2013-02-09 12:48:00,
2013-02-09 07:53:00,28.9,18.0,29.89,SW,225,1.6,8.6,63,0.00,,,0.00,Rainwise IP-100,2013-02-09 12:53:00,
2013-02-09 07:59:00,28.9,18.0,29.90,SW,225,2.6,8.9,63,0.00,,,0.00,Rainwise IP-100,2013-02-09 12:59:00,
2013-02-09 08:04:00,28.9,18.0,29.89,ESE,112,2.6,7.2,63,0.00,,,0.00,Rainwise IP-100,2013-02-09 13:04:00,
2013-02-09 08:09:00,29.0,18.0,29.89,SSW,202,2.3,7.5,63,0.00,,,0.00,Rainwise IP-100,2013-02-09 13:09:00,
2013-02-09 08:14:00,29.1,18.0,29.90,SSW,202,2.3,8.6,63,0.00,,,0.00,Rainwise IP-100,2013-02-09 13:14:00,
2013-02-09 08:19:00,29.1,18.0,29.90,SSW,202,3.5,8.9,63,0.00,,,0.00,Rainwise IP-100,2013-02-09 13:19:00,
2013-02-09 08:24:00,29.2,18.0,29.91,SSW,202,5.1,7.0,63,0.00,,,0.00,Rainwise IP-100,2013-02-09 13:24:00,
2013-02-09 08:29:00,29.2,18.0,29.91,SW,225,2.6,10.0,63,0.00,,,0.00,Rainwise IP-100,2013-02-09 13:29:00,
2013-02-09 08:34:00,29.3,18.0,29.92,SSW,202,3.0,6.1,62,0.00,,,0.00,Rainwise IP-100,2013-02-09 13:34:00,
2013-02-09 08:39:00,29.4,18.0,29.92,SW,225,4.2,11.0,62,0.00,,,0.00,Rainwise IP-100,2013-02-09 13:39:00,
2013-02-09 08:44:00,29.4,18.0,29.92,SSW,202,0.0,8.4,62,0.00,,,0.00,Rainwise IP-100,2013-02-09 13:44:00,
2013-02-09 08:49:00,29.6,21.0,29.93,SW,225,1.2,6.3,63,0.00,,,0.00,Rainwise IP-100,2013-02-09 13:49:00,
2013-02-09 08:54:00,29.8,21.0,29.92,SSW,202,2.6,9.6,62,0.00,,,0.00,Rainwise IP-100,2013-02-09 13:54:00,
2013-02-09 09:00:00,30.0,21.0,29.93,SW,225,2.3,5.8,62,0.00,,,0.00,Rainwise IP-100,2013-02-09 14:00:00,
2013-02-09 09:05:00,30.2,21.0,29.93,SSW,202,0.0,5.4,62,0.00,,,0.00,Rainwise IP-100,2013-02-09 14:05:00,
2013-02-09 09:10:00,30.3,21.0,29.93,SSW,202,4.2,9.1,62,0.00,,,0.00,Rainwise IP-100,2013-02-09 14:10:00,
2013-02-09 09:15:00,30.4,18.0,29.94,SSW,202,4.0,6.8,61,0.00,,,0.00,Rainwise IP-100,2013-02-09 14:15:00,
2013-02-09 09:20:00,30.7,18.0,29.94,South,180,0.0,7.5,61,0.00,,,0.00,Rainwise IP-100,2013-02-09 14:20:00,
2013-02-09 09:25:00,31.1,18.0,29.95,SSW,202,1.4,7.2,61,0.00,,,0.00,Rainwise IP-100,2013-02-09 14:25:00,
2013-02-09 09:30:00,31.4,18.0,29.95,SW,225,3.7,5.6,60,0.00,,,0.00,Rainwise IP-100,2013-02-09 14:30:00,
2013-02-09 09:35:00,31.7,21.0,29.95,SSW,202,1.6,5.8,59,0.00,,,0.00,Rainwise IP-100,2013-02-09 14:35:00,
2013-02-09 09:40:00,32.1,18.0,29.95,SW,225,1.9,7.7,58,0.00,,,0.00,Rainwise IP-100,2013-02-09 14:40:00,
2013-02-09 09:45:00,32.4,18.0,29.94,SSW,202,3.3,12.4,58,0.00,,,0.00,Rainwise IP-100,2013-02-09 14:45:00,
2013-02-09 09:50:00,32.6,21.0,29.95,SSW,202,2.3,7.5,57,0.00,,,0.00,Rainwise IP-100,2013-02-09 14:50:00,
2013-02-09 09:55:00,32.8,21.0,29.95,SSW,202,2.8,9.3,57,0.00,,,0.00,Rainwise IP-100,2013-02-09 14:55:00,
2013-02-09 10:01:00,33.1,21.0,29.95,SSW,202,8.6,8.6,57,0.00,,,0.00,Rainwise IP-100,2013-02-09 15:01:00,
2013-02-09 10:06:00,33.4,21.0,29.95,WSW,247,2.8,8.6,57,0.00,,,0.00,Rainwise IP-100,2013-02-09 15:06:00,
2013-02-09 10:11:00,33.8,21.0,29.95,SW,225,0.0,7.9,56,0.00,,,0.00,Rainwise IP-100,2013-02-09 15:11:00,
2013-02-09 10:16:00,34.0,21.0,29.96,SW,225,4.4,9.8,55,0.00,,,0.00,Rainwise IP-100,2013-02-09 15:16:00,
2013-02-09 10:21:00,33.9,21.0,29.95,SW,225,3.0,7.9,54,0.00,,,0.00,Rainwise IP-100,2013-02-09 15:21:00,
2013-02-09 10:26:00,34.0,21.0,29.96,SW,225,0.0,13.3,54,0.00,,,0.00,Rainwise IP-100,2013-02-09 15:26:00,
2013-02-09 10:31:00,34.1,21.0,29.96,SSW,202,1.6,7.0,54,0.00,,,0.00,Rainwise IP-100,2013-02-09 15:31:00,
2013-02-09 10:36:00,34.4,21.0,29.96,SW,225,4.4,10.5,54,0.00,,,0.00,Rainwise IP-100,2013-02-09 15:36:00,
2013-02-09 10:41:00,34.6,21.0,29.97,SSW,202,1.9,8.9,53,0.00,,,0.00,Rainwise IP-100,2013-02-09 15:41:00,
2013-02-09 10:46:00,34.8,21.0,29.98,South,180,2.8,5.8,53,0.00,,,0.00,Rainwise IP-100,2013-02-09 15:46:00,
2013-02-09 10:51:00,35.2,21.0,29.97,SSW,202,3.3,10.0,53,0.00,,,0.00,Rainwise IP-100,2013-02-09 15:51:00,
2013-02-09 10:56:00,35.6,21.0,29.98,SW,225,0.0,8.4,53,0.00,,,0.00,Rainwise IP-100,2013-02-09 15:56:00,
2013-02-09 11:02:00,36.0,21.0,29.97,SW,225,3.7,9.1,52,0.00,,,0.00,Rainwise IP-100,2013-02-09 16:02:00,
2013-02-09 11:07:00,36.2,21.0,29.98,SSW,202,2.6,6.3,52,0.00,,,0.00,Rainwise IP-100,2013-02-09 16:07:00,
2013-02-09 11:12:00,36.4,21.0,29.98,South,180,3.5,7.9,51,0.00,,,0.00,Rainwise IP-100,2013-02-09 16:12:00,
2013-02-09 11:17:00,36.4,21.0,29.98,WSW,247,1.6,8.6,50,0.00,,,0.00,Rainwise IP-100,2013-02-09 16:17:00,
2013-02-09 11:22:00,36.5,21.0,29.98,SSW,202,3.0,6.1,50,0.00,,,0.00,Rainwise IP-100,2013-02-09 16:22:00,
2013-02-09 11:27:00,36.6,21.0,29.98,SSW,202,3.0,6.3,51,0.00,,,0.00,Rainwise IP-100,2013-02-09 16:27:00,
2013-02-09 11:32:00,36.4,21.0,29.98,SSW,202,1.4,7.0,51,0.00,,,0.00,Rainwise IP-100,2013-02-09 16:32:00,
2013-02-09 11:37:00,35.9,21.0,29.98,SSW,202,0.0,6.3,51,0.00,,,0.00,Rainwise IP-100,2013-02-09 16:37:00,
2013-02-09 11:42:00,35.6,21.0,29.98,SW,225,3.0,8.2,51,0.00,,,0.00,Rainwise IP-100,2013-02-09 16:42:00,
2013-02-09 11:47:00,35.3,18.0,29.98,WSW,247,2.6,4.4,51,0.00,,,0.00,Rainwise IP-100,2013-02-09 16:47:00,
2013-02-09 11:52:00,35.3,18.0,29.98,WSW,247,2.3,6.1,52,0.00,,,0.00,Rainwise IP-100,2013-02-09 16:52:00,
2013-02-09 11:57:00,35.4,18.0,29.98,SSW,202,1.9,7.2,52,0.00,,,0.00,Rainwise IP-100,2013-02-09 16:57:00,
2013-02-09 12:03:00,35.4,18.0,29.98,WSW,247,0.0,5.6,52,0.00,,,0.00,Rainwise IP-100,2013-02-09 17:03:00,
2013-02-09 12:08:00,35.4,18.0,29.98,SW,225,4.4,7.5,52,0.00,,,0.00,Rainwise IP-100,2013-02-09 17:08:00,
2013-02-09 12:13:00,35.4,18.0,29.98,SSW,202,2.6,8.9,52,0.00,,,0.00,Rainwise IP-100,2013-02-09 17:13:00,
2013-02-09 12:18:00,35.3,18.0,29.98,WSW,247,4.7,6.5,51,0.00,,,0.00,Rainwise IP-100,2013-02-09 17:18:00,
2013-02-09 12:23:00,35.1,18.0,29.98,SW,225,2.6,6.8,51,0.00,,,0.00,Rainwise IP-100,2013-02-09 17:23:00,
2013-02-09 12:28:00,35.0,18.0,29.98,WSW,247,3.0,5.4,52,0.00,,,0.00,Rainwise IP-100,2013-02-09 17:28:00,
2013-02-09 12:33:00,35.3,18.0,29.98,SSW,202,2.8,7.2,52,0.00,,,0.00,Rainwise IP-100,2013-02-09 17:33:00,
2013-02-09 12:38:00,35.4,18.0,29.97,West,270,1.9,8.9,52,0.00,,,0.00,Rainwise IP-100,2013-02-09 17:38:00,
2013-02-09 12:43:00,35.5,21.0,29.97,SSW,202,1.4,8.6,51,0.00,,,0.00,Rainwise IP-100,2013-02-09 17:43:00,
2013-02-09 12:48:00,35.5,21.0,29.97,WSW,247,1.9,8.6,51,0.00,,,0.00,Rainwise IP-100,2013-02-09 17:48:00,
2013-02-09 12:54:00,35.6,21.0,29.97,SSW,202,2.8,7.0,51,0.00,,,0.00,Rainwise IP-100,2013-02-09 17:54:00,
2013-02-09 12:59:00,35.8,21.0,29.97,SSW,202,1.6,5.6,51,0.00,,,0.00,Rainwise IP-100,2013-02-09 17:59:00,
2013-02-09 13:04:00,36.1,21.0,29.97,West,270,1.2,8.9,51,0.00,,,0.00,Rainwise IP-100,2013-02-09 18:04:00,
2013-02-09 13:09:00,36.2,21.0,29.97,SW,225,2.3,5.8,51,0.00,,,0.00,Rainwise IP-100,2013-02-09 18:09:00,
2013-02-09 13:14:00,36.3,21.0,29.98,WSW,247,4.4,7.0,50,0.00,,,0.00,Rainwise IP-100,2013-02-09 18:14:00,
2013-02-09 13:20:00,36.3,21.0,29.97,SSW,202,3.3,6.5,50,0.00,,,0.00,Rainwise IP-100,2013-02-09 18:20:00,
2013-02-09 13:25:00,36.3,21.0,29.97,West,270,3.3,9.6,50,0.00,,,0.00,Rainwise IP-100,2013-02-09 18:25:00,
2013-02-09 13:30:00,36.4,21.0,29.97,SSW,202,1.2,5.6,50,0.00,,,0.00,Rainwise IP-100,2013-02-09 18:30:00,
2013-02-09 13:35:00,36.5,21.0,29.97,SSW,202,3.3,6.3,50,0.00,,,0.00,Rainwise IP-100,2013-02-09 18:35:00,
2013-02-09 13:40:00,36.6,21.0,29.96,SSW,202,5.4,5.6,50,0.00,,,0.00,Rainwise IP-100,2013-02-09 18:40:00,
2013-02-09 13:45:00,36.6,21.0,29.97,SW,225,1.6,8.4,49,0.00,,,0.00,Rainwise IP-100,2013-02-09 18:45:00,
2013-02-09 13:51:00,36.6,21.0,29.97,SSW,202,2.1,4.2,49,0.00,,,0.00,Rainwise IP-100,2013-02-09 18:51:00,
2013-02-09 13:56:00,36.7,21.0,29.98,SW,225,4.0,9.3,49,0.00,,,0.00,Rainwise IP-100,2013-02-09 18:56:00,
2013-02-09 14:01:00,36.9,21.0,29.98,South,180,1.4,7.0,49,0.00,,,0.00,Rainwise IP-100,2013-02-09 19:01:00,
2013-02-09 14:06:00,37.1,21.0,29.98,SSW,202,1.2,6.3,49,0.00,,,0.00,Rainwise IP-100,2013-02-09 19:06:00,
2013-02-09 14:11:00,37.1,21.0,29.98,SW,225,0.0,3.7,49,0.00,,,0.00,Rainwise IP-100,2013-02-09 19:11:00,
2013-02-09 14:16:00,37.2,21.0,29.98,SW,225,3.7,8.9,49,0.00,,,0.00,Rainwise IP-100,2013-02-09 19:16:00,
2013-02-09 14:21:00,37.4,21.0,29.98,SW,225,0.0,6.1,48,0.00,,,0.00,Rainwise IP-100,2013-02-09 19:21:00,
2013-02-09 14:26:00,37.4,21.0,29.98,SSW,202,1.4,6.1,48,0.00,,,0.00,Rainwise IP-100,2013-02-09 19:26:00,
2013-02-09 14:31:00,37.4,21.0,29.98,SW,225,1.4,7.5,48,0.00,,,0.00,Rainwise IP-100,2013-02-09 19:31:00,
2013-02-09 14:36:00,37.5,21.0,29.98,SSW,202,2.6,7.7,47,0.00,,,0.00,Rainwise IP-100,2013-02-09 19:36:00,
2013-02-09 14:41:00,37.7,21.0,29.99,South,180,4.4,8.2,47,0.00,,,0.00,Rainwise IP-100,2013-02-09 19:41:00,
2013-02-09 14:46:00,37.8,21.0,29.99,SSW,202,4.2,8.2,47,0.00,,,0.00,Rainwise IP-100,2013-02-09 19:46:00,
2013-02-09 14:52:00,37.7,21.0,29.99,SSW,202,0.0,8.4,46,0.00,,,0.00,Rainwise IP-100,2013-02-09 19:52:00,
2013-02-09 14:57:00,37.8,21.0,29.99,SSW,202,5.1,5.4,46,0.00,,,0.00,Rainwise IP-100,2013-02-09 19:57:00,
2013-02-09 15:02:00,37.9,21.0,30.00,NNE,22,2.3,7.0,46,0.00,,,0.00,Rainwise IP-100,2013-02-09 20:02:00,
2013-02-09 15:07:00,37.8,18.0,30.00,SSW,202,1.4,5.6,45,0.00,,,0.00,Rainwise IP-100,2013-02-09 20:07:00,
2013-02-09 15:12:00,37.9,18.0,30.00,SSW,202,5.4,8.6,45,0.00,,,0.00,Rainwise IP-100,2013-02-09 20:12:00,
2013-02-09 15:17:00,37.9,18.0,30.00,SW,225,0.0,6.3,44,0.00,,,0.00,Rainwise IP-100,2013-02-09 20:17:00,
2013-02-09 15:22:00,37.9,18.0,30.00,SW,225,2.1,6.5,44,0.00,,,0.00,Rainwise IP-100,2013-02-09 20:22:00,
2013-02-09 15:27:00,37.9,18.0,30.00,South,180,1.6,7.7,44,0.00,,,0.00,Rainwise IP-100,2013-02-09 20:27:00,
2013-02-09 15:32:00,37.8,18.0,30.00,SSW,202,2.3,5.4,44,0.00,,,0.00,Rainwise IP-100,2013-02-09 20:32:00,
2013-02-09 15:37:00,37.9,18.0,30.00,SSW,202,3.0,3.7,44,0.00,,,0.00,Rainwise IP-100,2013-02-09 20:37:00,
2013-02-09 15:42:00,37.9,18.0,30.01,SSW,202,3.3,4.0,44,0.00,,,0.00,Rainwise IP-100,2013-02-09 20:42:00,
2013-02-09 15:47:00,37.9,18.0,30.00,SSW,202,2.1,4.7,44,0.00,,,0.00,Rainwise IP-100,2013-02-09 20:47:00,
2013-02-09 15:53:00,37.9,18.0,30.01,SW,225,2.1,6.1,44,0.00,,,0.00,Rainwise IP-100,2013-02-09 20:53:00,
2013-02-09 15:58:00,37.9,18.0,30.01,SSW,202,0.0,5.6,44,0.00,,,0.00,Rainwise IP-100,2013-02-09 20:58:00,
2013-02-09 16:03:00,37.9,18.0,30.01,SSE,157,2.3,6.5,43,0.00,,,0.00,Rainwise IP-100,2013-02-09 21:03:00,
2013-02-09 16:08:00,37.9,18.0,30.01,SW,225,1.6,6.3,43,0.00,,,0.00,Rainwise IP-100,2013-02-09 21:08:00,
2013-02-09 16:13:00,37.9,18.0,30.01,SSW,202,2.8,5.1,43,0.00,,,0.00,Rainwise IP-100,2013-02-09 21:13:00,
2013-02-09 16:18:00,37.8,18.0,30.01,SSW,202,0.0,7.2,43,0.00,,,0.00,Rainwise IP-100,2013-02-09 21:18:00,
2013-02-09 16:23:00,37.7,18.0,30.01,SSW,202,0.0,4.7,43,0.00,,,0.00,Rainwise IP-100,2013-02-09 21:23:00,
2013-02-09 16:28:00,37.7,18.0,30.01,SW,225,4.0,4.0,43,0.00,,,0.00,Rainwise IP-100,2013-02-09 21:28:00,
2013-02-09 16:33:00,37.7,18.0,30.02,SSW,202,3.3,7.5,44,0.00,,,0.00,Rainwise IP-100,2013-02-09 21:33:00,
2013-02-09 16:38:00,37.6,18.0,30.02,SSW,202,1.9,4.7,43,0.00,,,0.00,Rainwise IP-100,2013-02-09 21:38:00,
2013-02-09 16:43:00,37.6,18.0,30.02,SSW,202,1.6,5.1,43,0.00,,,0.00,Rainwise IP-100,2013-02-09 21:43:00,
2013-02-09 16:48:00,37.6,18.0,30.02,SSW,202,0.0,5.1,43,0.00,,,0.00,Rainwise IP-100,2013-02-09 21:48:00,
2013-02-09 16:54:00,37.5,18.0,30.02,SW,225,0.0,3.3,43,0.00,,,0.00,Rainwise IP-100,2013-02-09 21:54:00,
2013-02-09 16:59:00,37.4,16.0,30.02,WNW,292,0.0,3.3,43,0.00,,,0.00,Rainwise IP-100,2013-02-09 21:59:00,
2013-02-09 17:04:00,37.3,16.0,30.03,SSW,202,2.8,4.2,43,0.00,,,0.00,Rainwise IP-100,2013-02-09 22:04:00,
2013-02-09 17:09:00,37.3,16.0,30.03,SSW,202,1.2,4.4,43,0.00,,,0.00,Rainwise IP-100,2013-02-09 22:09:00,
2013-02-09 17:14:00,37.3,16.0,30.03,SSW,202,3.3,3.3,43,0.00,,,0.00,Rainwise IP-100,2013-02-09 22:14:00,
2013-02-09 17:19:00,37.1,16.0,30.03,SSW,202,1.4,5.4,43,0.00,,,0.00,Rainwise IP-100,2013-02-09 22:19:00,
2013-02-09 17:24:00,36.9,16.0,30.04,SSW,202,0.0,5.4,43,0.00,,,0.00,Rainwise IP-100,2013-02-09 22:24:00,
2013-02-09 17:29:00,36.9,16.0,30.03,South,180,1.2,3.5,43,0.00,,,0.00,Rainwise IP-100,2013-02-09 22:29:00,
2013-02-09 17:34:00,36.6,18.0,30.03,South,180,0.0,2.3,45,0.00,,,0.00,Rainwise IP-100,2013-02-09 22:34:00,
2013-02-09 17:39:00,36.3,18.0,30.04,SSW,202,0.0,1.6,48,0.00,,,0.00,Rainwise IP-100,2013-02-09 22:39:00,
2013-02-09 17:44:00,36.0,18.0,30.04,SSW,202,0.0,1.4,49,0.00,,,0.00,Rainwise IP-100,2013-02-09 22:44:00,
2013-02-09 17:49:00,35.7,18.0,30.05,SSW,202,0.0,1.9,47,0.00,,,0.00,Rainwise IP-100,2013-02-09 22:49:00,
2013-02-09 17:55:00,35.6,18.0,30.05,SSW,202,0.0,1.9,47,0.00,,,0.00,Rainwise IP-100,2013-02-09 22:55:00,
2013-02-09 18:00:00,35.4,18.0,30.05,SSW,202,0.0,0.0,52,0.00,,,0.00,Rainwise IP-100,2013-02-09 23:00:00,
2013-02-09 18:05:00,35.1,21.0,30.05,SSW,202,0.0,0.0,54,0.00,,,0.00,Rainwise IP-100,2013-02-09 23:05:00,
2013-02-09 18:10:00,34.8,18.0,30.06,SW,225,1.6,2.8,52,0.00,,,0.00,Rainwise IP-100,2013-02-09 23:10:00,
2013-02-09 18:15:00,34.7,18.0,30.06,SSE,157,0.0,3.3,50,0.00,,,0.00,Rainwise IP-100,2013-02-09 23:15:00,
2013-02-09 18:20:00,34.8,18.0,30.06,SSW,202,0.0,4.0,48,0.00,,,0.00,Rainwise IP-100,2013-02-09 23:20:00,
2013-02-09 18:25:00,34.9,16.0,30.06,SSW,202,1.9,4.0,47,0.00,,,0.00,Rainwise IP-100,2013-02-09 23:25:00,
2013-02-09 18:30:00,35.0,16.0,30.06,SSW,202,0.0,6.1,47,0.00,,,0.00,Rainwise IP-100,2013-02-09 23:30:00,
2013-02-09 18:35:00,35.0,16.0,30.07,SSW,202,1.2,2.8,47,0.00,,,0.00,Rainwise IP-100,2013-02-09 23:35:00,
2013-02-09 18:40:00,34.8,16.0,30.07,SSW,202,0.0,1.9,47,0.00,,,0.00,Rainwise IP-100,2013-02-09 23:40:00,
2013-02-09 18:45:00,34.6,16.0,30.07,SSW,202,0.0,2.1,47,0.00,,,0.00,Rainwise IP-100,2013-02-09 23:45:00,
2013-02-09 18:51:00,34.6,16.0,30.07,SSW,202,0.0,2.3,47,0.00,,,0.00,Rainwise IP-100,2013-02-09 23:51:00,
2013-02-09 18:56:00,34.5,16.0,30.07,SSW,202,1.2,1.9,47,0.00,,,0.00,Rainwise IP-100,2013-02-09 23:56:00,
2013-02-09 19:01:00,34.4,16.0,30.07,SSW,202,0.0,1.4,47,0.00,,,0.00,Rainwise IP-100,2013-02-10 00:01:00,
2013-02-09 19:06:00,34.2,16.0,30.07,SSW,202,2.3,2.3,47,0.00,,,0.00,Rainwise IP-100,2013-02-10 00:06:00,
2013-02-09 19:11:00,34.1,16.0,30.08,SSW,202,1.9,2.8,47,0.00,,,0.00,Rainwise IP-100,2013-02-10 00:11:00,
2013-02-09 19:16:00,34.1,16.0,30.08,SSW,202,0.0,2.6,46,0.00,,,0.00,Rainwise IP-100,2013-02-10 00:16:00,
2013-02-09 19:21:00,34.0,16.0,30.08,SSW,202,0.0,1.4,46,0.00,,,0.00,Rainwise IP-100,2013-02-10 00:21:00,
2013-02-09 19:26:00,33.8,16.0,30.08,SSW,202,0.0,1.4,47,0.00,,,0.00,Rainwise IP-100,2013-02-10 00:26:00,
2013-02-09 19:31:00,33.7,16.0,30.08,SSW,202,1.4,1.4,47,0.00,,,0.00,Rainwise IP-100,2013-02-10 00:31:00,
2013-02-09 19:36:00,33.5,16.0,30.08,SSW,202,0.0,1.6,47,0.00,,,0.00,Rainwise IP-100,2013-02-10 00:36:00,
2013-02-09 19:41:00,33.4,16.0,30.09,SSW,202,0.0,2.3,48,0.00,,,0.00,Rainwise IP-100,2013-02-10 00:41:00,
2013-02-09 19:46:00,33.3,16.0,30.09,SSW,202,0.0,1.4,49,0.00,,,0.00,Rainwise IP-100,2013-02-10 00:46:00,
2013-02-09 19:52:00,33.1,16.0,30.09,SSW,202,0.0,0.0,49,0.00,,,0.00,Rainwise IP-100,2013-02-10 00:52:00,
2013-02-09 19:57:00,32.9,18.0,30.08,South,180,0.0,1.4,51,0.00,,,0.00,Rainwise IP-100,2013-02-10 00:57:00,
2013-02-09 20:02:00,32.8,18.0,30.08,SSW,202,0.0,1.9,50,0.00,,,0.00,Rainwise IP-100,2013-02-10 01:02:00,
2013-02-09 20:07:00,32.7,16.0,30.08,SSW,202,0.0,3.0,49,0.00,,,0.00,Rainwise IP-100,2013-02-10 01:07:00,
2013-02-09 20:12:00,32.8,16.0,30.08,SSW,202,0.0,2.1,49,0.00,,,0.00,Rainwise IP-100,2013-02-10 01:12:00,
2013-02-09 20:17:00,32.8,16.0,30.08,SSW,202,0.0,2.3,49,0.00,,,0.00,Rainwise IP-100,2013-02-10 01:17:00,
2013-02-09 20:22:00,32.7,18.0,30.08,SSW,202,0.0,1.6,50,0.00,,,0.00,Rainwise IP-100,2013-02-10 01:22:00,
2013-02-09 20:27:00,32.7,18.0,30.08,SSW,202,1.4,3.3,50,0.00,,,0.00,Rainwise IP-100,2013-02-10 01:27:00,
2013-02-09 20:32:00,32.6,18.0,30.08,SSW,202,1.4,2.8,50,0.00,,,0.00,Rainwise IP-100,2013-02-10 01:32:00,
2013-02-09 20:37:00,32.5,18.0,30.09,SSW,202,0.0,2.6,50,0.00,,,0.00,Rainwise IP-100,2013-02-10 01:37:00,
2013-02-09 20:42:00,32.4,16.0,30.09,SSW,202,0.0,1.4,50,0.00,,,0.00,Rainwise IP-100,2013-02-10 01:42:00,
2013-02-09 20:47:00,32.3,16.0,30.09,SSW,202,0.0,1.4,50,0.00,,,0.00,Rainwise IP-100,2013-02-10 01:47:00,
2013-02-09 20:53:00,32.2,16.0,30.10,SSW,202,0.0,0.0,51,0.00,,,0.00,Rainwise IP-100,2013-02-10 01:53:00,
2013-02-09 20:58:00,32.0,16.0,30.10,SSW,202,0.0,2.3,51,0.00,,,0.00,Rainwise IP-100,2013-02-10 01:58:00,
2013-02-09 21:03:00,31.9,16.0,30.09,SSW,202,0.0,1.4,52,0.00,,,0.00,Rainwise IP-100,2013-02-10 02:03:00,
2013-02-09 21:08:00,31.8,16.0,30.10,SSW,202,0.0,1.2,52,0.00,,,0.00,Rainwise IP-100,2013-02-10 02:08:00,
2013-02-09 21:13:00,31.7,16.0,30.10,SSW,202,0.0,1.4,52,0.00,,,0.00,Rainwise IP-100,2013-02-10 02:13:00,
2013-02-09 21:19:00,31.6,16.0,30.10,SSW,202,0.0,0.0,52,0.00,,,0.00,Rainwise IP-100,2013-02-10 02:19:00,
2013-02-09 21:24:00,31.3,16.0,30.10,SSW,202,0.0,1.6,53,0.00,,,0.00,Rainwise IP-100,2013-02-10 02:24:00,
2013-02-09 21:29:00,31.2,16.0,30.10,SSW,202,0.0,1.9,53,0.00,,,0.00,Rainwise IP-100,2013-02-10 02:29:00,
2013-02-09 21:34:00,31.1,16.0,30.10,SSW,202,1.2,1.2,53,0.00,,,0.00,Rainwise IP-100,2013-02-10 02:34:00,
2013-02-09 21:39:00,31.0,16.0,30.10,SSW,202,0.0,1.2,53,0.00,,,0.00,Rainwise IP-100,2013-02-10 02:39:00,
2013-02-09 21:44:00,31.0,16.0,30.10,SSW,202,0.0,1.2,53,0.00,,,0.00,Rainwise IP-100,2013-02-10 02:44:00,
2013-02-09 21:50:00,30.9,16.0,30.10,SSW,202,0.0,2.1,53,0.00,,,0.00,Rainwise IP-100,2013-02-10 02:50:00,
2013-02-09 21:55:00,30.9,16.0,30.10,SSW,202,0.0,1.4,54,0.00,,,0.00,Rainwise IP-100,2013-02-10 02:55:00,
2013-02-09 22:00:00,30.8,16.0,30.10,SSW,202,0.0,1.2,54,0.00,,,0.00,Rainwise IP-100,2013-02-10 03:00:00,
2013-02-09 22:05:00,30.7,16.0,30.10,SSW,202,0.0,1.4,54,0.00,,,0.00,Rainwise IP-100,2013-02-10 03:05:00,
2013-02-09 22:10:00,30.6,16.0,30.10,SSW,202,0.0,1.2,54,0.00,,,0.00,Rainwise IP-100,2013-02-10 03:10:00,
2013-02-09 22:15:00,30.5,16.0,30.10,SSW,202,0.0,0.0,55,0.00,,,0.00,Rainwise IP-100,2013-02-10 03:15:00,
2013-02-09 22:20:00,30.4,16.0,30.10,SSW,202,0.0,0.0,54,0.00,,,0.00,Rainwise IP-100,2013-02-10 03:20:00,
2013-02-09 22:25:00,30.2,16.0,30.11,SSW,202,0.0,0.0,54,0.00,,,0.00,Rainwise IP-100,2013-02-10 03:25:00,
2013-02-09 22:30:00,30.1,16.0,30.11,SSW,202,0.0,1.6,55,0.00,,,0.00,Rainwise IP-100,2013-02-10 03:30:00,
2013-02-09 22:35:00,29.9,16.0,30.11,SSW,202,0.0,1.2,55,0.00,,,0.00,Rainwise IP-100,2013-02-10 03:35:00,
2013-02-09 22:40:00,29.9,18.0,30.12,SSW,202,0.0,0.0,56,0.00,,,0.00,Rainwise IP-100,2013-02-10 03:40:00,
2013-02-09 22:45:00,29.7,18.0,30.11,SSW,202,0.0,0.0,56,0.00,,,0.00,Rainwise IP-100,2013-02-10 03:45:00,
2013-02-09 22:51:00,29.6,18.0,30.12,SSW,202,0.0,1.2,56,0.00,,,0.00,Rainwise IP-100,2013-02-10 03:51:00,
2013-02-09 22:56:00,29.6,18.0,30.11,SSW,202,0.0,1.4,57,0.00,,,0.00,Rainwise IP-100,2013-02-10 03:56:00,
2013-02-09 23:01:00,29.5,18.0,30.12,SSW,202,0.0,1.2,57,0.00,,,0.00,Rainwise IP-100,2013-02-10 04:01:00,
2013-02-09 23:06:00,29.5,18.0,30.12,SSW,202,0.0,1.2,57,0.00,,,0.00,Rainwise IP-100,2013-02-10 04:06:00,
2013-02-09 23:11:00,29.4,16.0,30.12,SSW,202,0.0,0.0,57,0.00,,,0.00,Rainwise IP-100,2013-02-10 04:11:00,
2013-02-09 23:16:00,29.2,16.0,30.12,SSW,202,0.0,0.0,57,0.00,,,0.00,Rainwise IP-100,2013-02-10 04:16:00,
2013-02-09 23:21:00,29.2,16.0,30.13,SSW,202,0.0,1.2,58,0.00,,,0.00,Rainwise IP-100,2013-02-10 04:21:00,
2013-02-09 23:26:00,29.2,16.0,30.12,SSW,202,0.0,0.0,58,0.00,,,0.00,Rainwise IP-100,2013-02-10 04:26:00,
2013-02-09 23:31:00,29.2,16.0,30.12,SSW,202,0.0,1.6,58,0.00,,,0.00,Rainwise IP-100,2013-02-10 04:31:00,
2013-02-09 23:36:00,29.2,16.0,30.13,SSW,202,0.0,1.4,58,0.00,,,0.00,Rainwise IP-100,2013-02-10 04:36:00,
2013-02-09 23:41:00,29.3,16.0,30.13,SSW,202,0.0,2.6,58,0.00,,,0.00,Rainwise IP-100,2013-02-10 04:41:00,
2013-02-09 23:46:00,29.3,16.0,30.13,SSW,202,0.0,1.6,58,0.00,,,0.00,Rainwise IP-100,2013-02-10 04:46:00,
2013-02-09 23:52:00,29.3,16.0,30.13,SSW,202,0.0,1.9,58,0.00,,,0.00,Rainwise IP-100,2013-02-10 04:52:00,
2013-02-09 23:57:00,29.4,16.0,30.13,SSW,202,0.0,1.4,58,0.00,,,0.00,Rainwise IP-100,2013-02-10 04:57:00,